Hobart, OK

6:42 PM CDT on May 23, 2017 (GMT -0500)
Hobart Municipal

Weather History for KHBR - August, 2013

Change the Weather History Date:

Thursday, August 29, 2013

  Actual Average Record
Temperature  
Mean Temperature 86 °F -  
Max Temperature 102 °F 91 °F 102 °F (1999)
Min Temperature 72 °F 66 °F 62 °F (1998)
Cooling Degree Days 21    
Growing Degree Days 36 (Base 50)    
Moisture  
Dew Point 57 °F    
Average Humidity 41    
Maximum Humidity 66    
Minimum Humidity 21    
Precipitation  
Precipitation 0.00 in - - ()
Sea Level Pressure  
Sea Level Pressure 29.99 in    
Wind  
Wind Speed 10 mph (SSW)    
Max Wind Speed 17 mph    
Max Gust Speed 25 mph    
Visibility 10 miles    
Events      
Averages and records for this station are not official NWS values.
T = Trace of Precipitation, MM = Missing Value Source: NWS Daily Summary

Daily Weather History Graph

Daily Weather History Graph

Search for Another Location

Airport or City:

Trip Planner

Search our weather history database for the weather conditions in past years. The results will help you decide how hot, cold, wet, or windy it might be!

Date:

Astronomy

Aug. 29, 2013 Rise Set
Actual Time 7:06 AM CDT 8:06 PM CDT
Civil Twilight 6:40 AM CDT 8:32 PM CDT
Nautical Twilight 6:10 AM CDT 9:03 PM CDT
Astronomical Twilight 5:38 AM CDT 9:34 PM CDT
Moon 1:06 AM CDT (8/29) 3:29 PM CDT (8/29)
Length of Visible Light 13h 51m
Length of Day
12h 59m
Last Quarter, 38% of the Moon is Illuminated
Aug 29
Last Quarter
Sep 5
New
Sep 12
First Quarter
Sep 19
Full
Sep 26
Last Quarter

Hourly Weather History & Observations

Time (CDT) Temp. Heat Index Dew Point Humidity Pressure Visibility Wind Dir Wind Speed Gust Speed Precip Events Conditions
12:53 AM 77.0 °F - 60.1 °F 56% 29.99 in 10.0 mi South 8.1 mph - N/A   Clear
1:53 AM 73.9 °F - 60.1 °F 62% 30.00 in 10.0 mi South 9.2 mph - N/A   Clear
2:53 AM 73.9 °F - 60.1 °F 62% 30.00 in 10.0 mi South 9.2 mph - N/A   Clear
3:53 AM 73.0 °F - 60.1 °F 64% 30.00 in 10.0 mi South 9.2 mph - N/A   Clear
4:53 AM 73.0 °F - 60.1 °F 64% 30.00 in 10.0 mi South 9.2 mph - N/A   Clear
5:53 AM 72.0 °F - 60.1 °F 66% 30.01 in 10.0 mi South 9.2 mph - N/A   Clear
6:53 AM 72.0 °F - 60.1 °F 66% 30.02 in 10.0 mi SSW 10.4 mph - N/A   Clear
7:53 AM 73.9 °F - 60.1 °F 62% 30.03 in 10.0 mi SSW 9.2 mph - N/A   Clear
8:53 AM 81.0 °F 81.6 °F 60.1 °F 49% 30.04 in 10.0 mi SSW 12.7 mph - N/A   Clear
9:53 AM 86.0 °F 85.4 °F 59.0 °F 40% 30.04 in 10.0 mi SW 8.1 mph - N/A   Clear
10:53 AM 91.0 °F 89.7 °F 57.0 °F 32% 30.04 in 10.0 mi WSW 10.4 mph - N/A   Clear
11:53 AM 95.0 °F 93.4 °F 55.9 °F 27% 30.04 in 10.0 mi WSW 11.5 mph 20.7 mph N/A   Clear
12:53 PM 96.1 °F 94.5 °F 55.9 °F 26% 30.02 in 10.0 mi SW 11.5 mph 23.0 mph N/A   Clear
1:53 PM 99.0 °F 97.3 °F 55.0 °F 23% 29.99 in 10.0 mi SW 17.3 mph 25.3 mph N/A   Clear
2:53 PM 98.1 °F 96.1 °F 54.0 °F 23% 29.97 in 10.0 mi South 11.5 mph 21.9 mph N/A   Clear
3:53 PM 100.0 °F 97.9 °F 53.1 °F 21% 29.95 in 10.0 mi SW 13.8 mph 21.9 mph N/A   Clear
4:53 PM 100.0 °F 97.9 °F 53.1 °F 21% 29.93 in 10.0 mi SSW 16.1 mph 21.9 mph N/A   Clear
5:53 PM 98.1 °F 95.7 °F 53.1 °F 22% 29.94 in 10.0 mi SSW 15.0 mph 18.4 mph N/A   Clear
6:53 PM 96.1 °F 93.5 °F 53.1 °F 23% 29.94 in 10.0 mi South 12.7 mph - N/A   Clear
7:53 PM 93.0 °F 90.8 °F 54.0 °F 27% 29.94 in 10.0 mi SSE 8.1 mph - N/A   Clear
8:53 PM 87.1 °F 85.1 °F 54.0 °F 32% 29.94 in 10.0 mi SSE 9.2 mph - N/A   Clear
9:53 PM 84.9 °F 83.6 °F 55.0 °F 36% 29.95 in 10.0 mi SSE 10.4 mph - N/A   Clear
10:53 PM 82.9 °F 82.1 °F 55.9 °F 39% 29.95 in 10.0 mi South 9.2 mph - N/A   Clear
11:53 PM 80.1 °F 80.4 °F 57.0 °F 45% 29.95 in 10.0 mi South 9.2 mph - N/A   Clear